Location: Vesunti
(61.5000°N, 22.8333°E)
Time: 17:52:03
(UTC+00:00)

Lacrosse 5 - Pass Details

Date: 17 February 2020
Orbit: 715 x 724 km, 57.0° (Epoch: 21 March)

Event Time Altitude Azimuth Distance (km) Brightness Sun altitude
Exits shadow 04:38:35 11° 246° (WSW) 2,118 3.8 -11.2°
Maximum altitude 04:39:48 12° 232° (SW) 2,057 3.8 -11.0°
Drops below altitude 10° 04:41:47 10° 209° (SSW) 2,208 4.2 -10.8°
Sets 04:45:37 0° 180° (S) 3,125 5.3 -10.3°
